{"data":{"norad_id":53469,"epoch":"2026-05-24T21:35:55.921056Z","epoch_age_seconds":97882,"freshness":"FRESH","line1":"1 53469U 22099E   26144.89995279  .00000746  00000+0  55792-4 0  9992","line2":"2 53469  97.4490 265.9856 0001412 128.9127 231.2226 15.05646998207517","mean_motion":15.05646998,"eccentricity":0.0001412,"inclination_deg":97.449,"raan_deg":265.9856,"arg_perigee_deg":128.9127,"mean_anomaly_deg":231.2226,"bstar":5.5792e-5,"rev_number":20751,"period_min":95.639947604771,"perigee_km":548.54217717222,"apogee_km":550.49854761136,"semimajor_km":6927.6573623918,"source":"CELESTRAK","updated_at":"2026-05-25T13:38:17.408960Z"}}